Карточка аэропорта USHH

Внимание!
Информация на этой странице в стадии наполнения.
Если вы не увидели какой-то информации, или заметили неточность - пожалуйста сообщите нам!
Спасибо!
Команда RU-STAFF
Название аэропортаХанты-Мансийск
Название аэропорта (англ.)Khanty-Mansiysk
Превышение141 ft. (43 m.)
Координаты61°1.7039999999999', 69°5.1599999999999'
Высота перехода800m
Эшелон переходаFL050
Коды ответчика5150-5177
Зона ОрВДТюмень РПИ (USTV)
Данные METARUSHH 121400Z 27003MPS CAVOK 19/13 Q1006 R24/010060 NOSIG
Проноз погоды (TAF)USHH 121041Z 1212/1312 27005G12MPS 9999 BKN017 TEMPO 1212/1218 5000 -SHRA FEW005 BKN016CB BECMG 1215/1216 26003G12MPS TEMPO 1218/1224 5000 BR FEW003 BKN016 TEMPO 1300/1312 4000 -TSRA SCT004 BKN016CB BECMG 1308/1310 31005G14MPS
NOTAMshow/hide NOTAM
AWOS   TABLE

Информация о ВПП

ВПП Длина ВПП (м.) Покрытие Курс ВПП Частота ILS
062800Асфальтобетон58111.9
242800Асфальтобетон238110.1

Диспетчерские позиции

Позывной Наименование органа УВД Частота
USHH_TWRХантым-Вышка118.1
USHH_R_APPХантым-Круг120.4



Спутниковое изображение